Farrell Flat Airport

Jump to: basic info | weather | frequencies | runways | comments

Related pages: nearby airports | nearby navaids | notams | map

Basic information (top)

Codes: YFFT
Location: lon -33.833302, lat 138.766998
Status: small_airport

Weather (top)

Current conditions for Adelaide International Airport 68nm (125km) S (rec'd 2014/04/23 08:00Z):

YPAD 230800Z 34005KT CAVOK 18/08 Q1014 NOSIG

Airport forecast for Adelaide International Airport 68nm (125km) S (rec'd 2014/04/23 06:30Z):

TAF YPAD 230510Z 2306/2412 29008KT CAVOK 
     FM231500 29010KT 9999 -SHRA SCT025 BKN040 
     FM231800 22010KT 9999 -SHRA FEW018 SCT020 BKN030 
     FM240000 17010KT 9999 -SHRA SCT020 BKN030 
     FM240300 16011KT 9999 SCT030 INTER 2318/2400 5000 SHRA SCT015

Frequencies (top)

Verify before use: may be inaccurate or out of date.

CTAF: 122.4 MHz (CTAF)
MISC: 114.2 MHz (MISC)
MISC: 119.8 MHz (MISC)
MISC: 121.3 MHz (MISC)

Runways (top)

03/21: 1,443 ft (440 m) — grass — not lighted

14/32: 2,486 ft (758 m) — grass — not lighted

Latest comments (top)

No comments yet for Farrell Flat Airport

More... (top)

See also NOTAMs and nearby airports and navaids, or visit the Farrell Flat Airport page at the main OurAirports website..